• In Sweden
  • List of Countries
  • For 7 days
  • Water Temperature
  • Satellite Maps
  • Weather Map
  • Weather Widgets
  • user-avatar
    Login

    Hourly Weather Birmingham

    Today, 24 September, Sunday

    Time Temperature Precipitation Wind Pressure Humidity
    00:00 +12°C° 0 mm 3 mps 751 mmHg 74%
    01:00 +12°C° 0 mm 3 mps 751 mmHg 75%
    02:00 +11°C° 0 mm 3 mps 750 mmHg 77%
    03:00 +11°C° 0 mm 3 mps 750 mmHg 78%
    04:00 +10°C° 0 mm 3 mps 750 mmHg 82%
    05:00 +10°C° 0 mm 3 mps 750 mmHg 86%
    06:00 +10°C° 0 mm 2 mps 750 mmHg 91%
    07:00 +11°C° 0 mm 3 mps 750 mmHg 87%
    08:00 +13°C° 0 mm 4 mps 750 mmHg 84%
    09:00 +15°C° 0 mm 4 mps 750 mmHg 80%
    10:00 +17°C° 0 mm 4 mps 750 mmHg 76%
    11:00 +17°C° 0 mm 5 mps 750 mmHg 72%
    12:00 +19°C° 0 mm 5 mps 750 mmHg 68%
    13:00 +19°C° 0 mm 4 mps 750 mmHg 69%
    14:00 +19°C° 0 mm 4 mps 750 mmHg 70%
    15:00 +19°C° 0 mm 4 mps 750 mmHg 72%
    16:00 +18°C° 0 mm 4 mps 750 mmHg 75%
    17:00 +17°C° 0 mm 3 mps 750 mmHg 79%
    18:00 +17°C° 0 mm 3 mps 750 mmHg 83%
    19:00 +16°C° 0.1 mm 3 mps 750 mmHg 85%
    20:00 +16°C° 0.1 mm 3 mps 750 mmHg 87%
    21:00 +14°C° 0.1 mm 3 mps 750 mmHg 89%
    22:00 +14°C° 0.4 mm 3 mps 750 mmHg 91%
    23:00 +15°C° 0.4 mm 2 mps 750 mmHg 92%

    Tomorrow, 25 September, Monday

    Time Temperature Precipitation Wind Pressure Humidity
    00:00 +15°C° 0.4 mm 2 mps 750 mmHg 94%
    01:00 +15°C° 1.2 mm 2 mps 750 mmHg 94%
    02:00 +15°C° 1.2 mm 2 mps 750 mmHg 95%
    03:00 +15°C° 1.2 mm 2 mps 750 mmHg 96%
    04:00 +15°C° 1 mm 2 mps 750 mmHg 96%
    05:00 +15°C° 1 mm 2 mps 750 mmHg 97%
    06:00 +15°C° 1 mm 2 mps 750 mmHg 97%
    07:00 +15°C° 0.7 mm 2 mps 750 mmHg 96%
    08:00 +15°C° 0.7 mm 2 mps 750 mmHg 96%
    09:00 +15°C° 0.7 mm 2 mps 751 mmHg 95%
    10:00 +15°C° 0.5 mm 2 mps 751 mmHg 94%
    11:00 +15°C° 0.5 mm 2 mps 751 mmHg 94%
    12:00 +15°C° 0.5 mm 2 mps 751 mmHg 93%
    13:00 +15°C° 0.2 mm 2 mps 751 mmHg 91%
    14:00 +16°C° 0.2 mm 2 mps 751 mmHg 90%
    15:00 +16°C° 0.2 mm 2 mps 751 mmHg 89%
    16:00 +15°C° 0.2 mm 2 mps 752 mmHg 89%
    17:00 +15°C° 0.2 mm 1 mps 752 mmHg 90%
    18:00 +15°C° 0.2 mm 1 mps 752 mmHg 91%
    19:00 +14°C° 0 mm 1 mps 752 mmHg 92%
    20:00 +14°C° 0 mm 1 mps 753 mmHg 92%
    21:00 +14°C° 0 mm 1 mps 753 mmHg 93%
    22:00 +13°C° 0 mm 1 mps 753 mmHg 93%
    23:00 +13°C° 0 mm 1 mps 753 mmHg 94%

    Day after tomorrow, 26 September, Tuesday

    Time Temperature Precipitation Wind Pressure Humidity
    00:00 +13°C° 0 mm 1 mps 753 mmHg 94%
    01:00 +12°C° 0 mm 1 mps 753 mmHg 95%
    02:00 +12°C° 0 mm 1 mps 753 mmHg 96%
    03:00 +12°C° 0 mm 1 mps 753 mmHg 96%
    04:00 +12°C° 0 mm 1 mps 753 mmHg 97%
    05:00 +11°C° 0 mm 1 mps 753 mmHg 97%
    06:00 +11°C° 0 mm 1 mps 753 mmHg 97%
    07:00 +12°C° 0 mm 1 mps 753 mmHg 95%
    08:00 +13°C° 0 mm 1 mps 753 mmHg 92%
    09:00 +15°C° 0 mm 2 mps 754 mmHg 89%
    10:00 +15°C° 0 mm 1 mps 753 mmHg 85%
    11:00 +16°C° 0 mm 1 mps 753 mmHg 81%
    12:00 +18°C° 0 mm 1 mps 753 mmHg 78%
    13:00 +18°C° 0 mm 1 mps 753 mmHg 76%
    14:00 +18°C° 0 mm 1 mps 753 mmHg 75%
    15:00 +18°C° 0 mm 2 mps 753 mmHg 74%
    16:00 +18°C° 0 mm 1 mps 753 mmHg 77%
    17:00 +16°C° 0 mm 1 mps 753 mmHg 80%
    18:00 +15°C° 0 mm 1 mps 753 mmHg 83%
    19:00 +15°C° 0 mm 1 mps 753 mmHg 85%
    20:00 +14°C° 0 mm 1 mps 753 mmHg 87%
    21:00 +14°C° 0 mm 1 mps 753 mmHg 88%
    22:00 +14°C° 0 mm 1 mps 753 mmHg 89%
    23:00 +13°C° 0 mm 2 mps 753 mmHg 90%

    27 September, Wednesday

    Time Temperature Precipitation Wind Pressure Humidity
    00:00 +13°C° 0 mm 2 mps 752 mmHg 91%
    01:00 +13°C° 0 mm 2 mps 752 mmHg 92%
    02:00 +12°C° 0 mm 2 mps 752 mmHg 93%
    03:00 +12°C° 0 mm 2 mps 752 mmHg 94%
    04:00 +12°C° 0 mm 2 mps 752 mmHg 94%
    05:00 +12°C° 0 mm 2 mps 752 mmHg 94%
    06:00 +11°C° 0 mm 3 mps 751 mmHg 95%
    07:00 +12°C° 0 mm 3 mps 751 mmHg 91%
    08:00 +13°C° 0 mm 4 mps 751 mmHg 87%
    09:00 +15°C° 0 mm 4 mps 751 mmHg 83%
    10:00 +16°C° 0 mm 5 mps 751 mmHg 81%
    11:00 +16°C° 0 mm 5 mps 751 mmHg 78%
    12:00 +17°C° 0 mm 6 mps 751 mmHg 75%
    13:00 +17°C° 0.1 mm 6 mps 750 mmHg 76%
    14:00 +17°C° 0.1 mm 5 mps 750 mmHg 76%
    15:00 +17°C° 0.1 mm 5 mps 749 mmHg 77%
    16:00 +16°C° 0.6 mm 5 mps 749 mmHg 80%
    17:00 +16°C° 0.6 mm 5 mps 748 mmHg 83%
    18:00 +15°C° 0.6 mm 6 mps 748 mmHg 86%
    19:00 +15°C° 1.9 mm 6 mps 748 mmHg 88%
    20:00 +15°C° 1.9 mm 6 mps 748 mmHg 89%
    21:00 +14°C° 1.9 mm 6 mps 748 mmHg 91%
    22:00 +14°C° 1.2 mm 6 mps 748 mmHg 91%
    23:00 +14°C° 1.2 mm 5 mps 748 mmHg 92%

    28 September, Thursday

    Time Temperature Precipitation Wind Pressure Humidity
    00:00 +14°C° 1.2 mm 5 mps 748 mmHg 92%
    01:00 +14°C° 0.2 mm 4 mps 748 mmHg 93%
    02:00 +13°C° 0.2 mm 4 mps 748 mmHg 93%
    03:00 +13°C° 0.2 mm 3 mps 748 mmHg 94%
    04:00 +12°C° 0 mm 3 mps 749 mmHg 94%
    05:00 +11°C° 0 mm 3 mps 749 mmHg 94%
    06:00 +10°C° 0 mm 3 mps 750 mmHg 94%
    07:00 +11°C° 0 mm 3 mps 750 mmHg 90%
    08:00 +12°C° 0 mm 3 mps 751 mmHg 87%
    09:00 +13°C° 0 mm 3 mps 751 mmHg 83%
    10:00 +14°C° 0 mm 3 mps 752 mmHg 78%
    11:00 +16°C° 0 mm 3 mps 752 mmHg 72%
    12:00 +17°C° 0 mm 3 mps 752 mmHg 66%
    13:00 +17°C° 0 mm 2 mps 752 mmHg 63%
    14:00 +17°C° 0 mm 2 mps 752 mmHg 60%
    15:00 +18°C° 0 mm 2 mps 751 mmHg 57%
    16:00 +17°C° 0 mm 2 mps 752 mmHg 61%
    17:00 +15°C° 0 mm 2 mps 752 mmHg 66%
    18:00 +14°C° 0 mm 2 mps 752 mmHg 70%
    19:00 +14°C° 0 mm 2 mps 752 mmHg 72%
    20:00 +12°C° 0 mm 3 mps 752 mmHg 74%
    21:00 +11°C° 0 mm 3 mps 752 mmHg 76%
    22:00 +11°C° 0 mm 3 mps 752 mmHg 77%
    23:00 +11°C° 0 mm 3 mps 752 mmHg 78%

    29 September, Friday

    Time Temperature Precipitation Wind Pressure Humidity
    00:00 +10°C° 0 mm 3 mps 751 mmHg 80%
    01:00 +10°C° 0 mm 3 mps 751 mmHg 81%
    02:00 +10°C° 0 mm 3 mps 751 mmHg 83%
    03:00 +10°C° 0 mm 3 mps 750 mmHg 85%
    04:00 +11°C° 0 mm 4 mps 750 mmHg 86%
    05:00 +11°C° 0 mm 4 mps 750 mmHg 86%
    06:00 +12°C° 0 mm 4 mps 750 mmHg 87%
    07:00 +13°C° 0.1 mm 4 mps 749 mmHg 88%
    08:00 +13°C° 0.1 mm 4 mps 749 mmHg 89%
    09:00 +14°C° 0.1 mm 5 mps 749 mmHg 90%
    10:00 +15°C° 0.2 mm 5 mps 749 mmHg 89%
    11:00 +16°C° 0.2 mm 5 mps 749 mmHg 87%
    12:00 +17°C° 0.2 mm 5 mps 749 mmHg 86%
    13:00 +18°C° 0.5 mm 4 mps 748 mmHg 86%
    14:00 +18°C° 0.5 mm 4 mps 748 mmHg 86%
    15:00 +18°C° 0.5 mm 4 mps 747 mmHg 86%
    16:00 +17°C° 1.7 mm 3 mps 747 mmHg 89%
    17:00 +16°C° 1.7 mm 3 mps 747 mmHg 91%
    18:00 +16°C° 1.7 mm 2 mps 747 mmHg 94%
    19:00 +14°C° 2.8 mm 3 mps 747 mmHg 93%
    20:00 +13°C° 2.8 mm 4 mps 747 mmHg 92%
    21:00 +12°C° 2.8 mm 5 mps 746 mmHg 91%
    22:00 +10°C° 0.5 mm 5 mps 746 mmHg 89%
    23:00 +9°C° 0.5 mm 5 mps 746 mmHg 87%
    Show more